Location: Étouvelles
(49.5207°N, 3.5808°E)
Time: 01:03:15
(UTC+00:00)

Cosmos 540 Rocket - Pass Details

Date: 30 September 2023
Orbit: 737 x 752 km, 74.1° (Epoch: 03 December)

Event Time Altitude Azimuth Distance (km) Brightness Sun altitude
Rises 19:10:33 0° 344° (NNW) 3,185 7.2 -17.4°
Reaches altitude 10° 19:13:46 10° 5° (N) 2,259 6.1 -17.9°
Maximum altitude 19:17:02 17° 45° (NE) 1,835 5.2 -18.4°
Enters shadow 19:17:34 17° 53° (NE) 1,847 5.2 -18.5°
